White Center, Washington, United States
Lat: 47.52N, Lon: 122.35W
Wx Zone: WAZ508
Local Info
Past Weather Observations for Today

NOTE: This archive is for the closest National Weather Service station to White Center. Information may differ from the station used for current weather conditions.

Click here for Long-term Archive

Time Weather Temperature Dewpoint Humidity Pressure Winds Precip Visibility
20:53
Overcast
54°F / 12°C 48°F / 9°C 82% 29.89 in
(1012 mb)
Calm - 10SM
20:00
Mostly Cloudy
54°F / 12°C 48°F / 9°C 82% 29.89 in
(1012 mb)
Calm - 10SM
19:53
Overcast
54°F / 12°C 48°F / 9°C 82% 29.89 in
(1012 mb)
Calm - 10SM
18:53
Overcast
54°F / 12°C 48°F / 9°C 82% 29.86 in
(1011 mb)
SE 3.5 mph
(SE 6 kph)
- 10SM
17:53
Partly Cloudy
54°F / 12°C 46°F / 8°C 77% 29.86 in
(1011 mb)
Calm - 10SM
16:53
Mostly Cloudy
55°F / 13°C 46°F / 8°C 72% 29.86 in
(1011 mb)
S 6.9 mph
(S 11 kph)
- 10SM
14:53
Mostly Cloudy
57°F / 14°C 48°F / 9°C 72% 29.83 in
(1010 mb)
S 6.9 mph
(S 11 kph)
- 10SM
13:53
Mostly Cloudy
57°F / 14°C 48°F / 9°C 72% 29.83 in
(1010 mb)
S 6.9 mph
(S 11 kph)
- 10SM
12:53
Overcast
55°F / 13°C 48°F / 9°C 77% 29.83 in
(1010 mb)
S 8.1 mph
(S 13 kph)
0.00 in
(0.00 mm)
10SM
11:53
Overcast
54°F / 12°C 48°F / 9°C 82% 29.83 in
(1010 mb)
Variable 6.9 mph
(Variable 11 kph)
0.01 in
(0.25 mm)
10SM
10:53
Overcast
55°F / 13°C 48°F / 9°C 77% 29.83 in
(1010 mb)
SW 6.9 mph
(SW 11 kph)
0.00 in
(0.00 mm)
10SM
10:00
Overcast
Light Rain
54°F / 12°C 48°F / 9°C 82% 29.8 in
(1009 mb)
SSE 3.5 mph
(SSE 6 kph)
0.00 in
(0.00 mm)
10SM
09:53
Overcast
Light Rain
54°F / 12°C 48°F / 9°C 82% 29.8 in
(1009 mb)
SE 5.8 mph
(SE 9 kph)
0.09 in
(2.29 mm)
10SM
08:53
Overcast
Light Rain
54°F / 12°C 48°F / 9°C 82% 29.77 in
(1008 mb)
NNW 3.5 mph
(NNW 6 kph)
0.11 in
(2.79 mm)
4SM
07:53
Overcast
Rain
54°F / 12°C 50°F / 10°C 88% 29.74 in
(1007 mb)
W 6.9 mph
(W 11 kph)
0.19 in
(4.83 mm)
3SM
06:53
Mostly Cloudy
Rain
54°F / 12°C 50°F / 10°C 88% 29.71 in
(1006 mb)
W 3.5 mph
(W 6 kph)
0.07 in
(1.78 mm)
3SM
06:47
Overcast
Rain
54°F / 12°C 50°F / 10°C 88% 29.71 in
(1006 mb)
Calm 0.06 in
(1.52 mm)
2 1/2SM
05:53
Overcast
Light Rain
54°F / 12°C 48°F / 9°C 82% 29.71 in
(1006 mb)
Calm 0.03 in
(0.76 mm)
5SM
05:38
Overcast
Light Rain
54°F / 12°C 50°F / 10°C 88% 29.68 in
(1005 mb)
Calm 0.02 in
(0.51 mm)
7SM
05:31
Overcast
Light Rain
54°F / 12°C 50°F / 10°C 88% 29.71 in
(1006 mb)
Calm 0.01 in
(0.25 mm)
6SM
04:53
Overcast
Light Rain
54°F / 12°C 50°F / 10°C 88% 29.71 in
(1006 mb)
Calm 0.02 in
(0.51 mm)
7SM
03:53
Overcast
Light Rain
54°F / 12°C 48°F / 9°C 82% 29.71 in
(1006 mb)
Calm 0.01 in
(0.25 mm)
10SM
03:05
Overcast
Light Rain
54°F / 12°C 50°F / 10°C 88% 29.74 in
(1007 mb)
Calm 0.00 in
(0.00 mm)
7SM
02:53
Overcast
Light Rain
54°F / 12°C 50°F / 10°C 88% 29.74 in
(1007 mb)
Calm 0.04 in
(1.02 mm)
6SM
01:53
Overcast
Light Rain
54°F / 12°C 50°F / 10°C 88% 29.77 in
(1008 mb)
Calm 0.04 in
(1.02 mm)
6SM
00:53
Overcast
Light Rain
55°F / 13°C 52°F / 11°C 88% 29.77 in
(1008 mb)
S 4.6 mph
(S 7 kph)
0.10 in
(2.54 mm)
8SM
00:30
Overcast
Light Rain
55°F / 13°C 52°F / 11°C 88% 29.77 in
(1008 mb)
SE 3.5 mph
(SE 6 kph)
0.07 in
(1.78 mm)
6SM
00:21
Overcast
Light Rain
55°F / 13°C 52°F / 11°C 88% 29.77 in
(1008 mb)
SE 4.6 mph
(SE 7 kph)
0.05 in
(1.27 mm)
6SM
Time Weather Temperature Dewpoint Humidity Pressure Winds Precip Visibility


Weather for websites

WeatherForYou.com, LLC is not responsible for any damages or problems caused by this service. Current weather conditions are obtained from the closest station including government and personal stations which may have varying degrees of accuracy. Weather forecasts are derived from the NOAA NDFD. Like all things, this site belongs to Jesus Christ... He just trusts me to maintain it. If you have any questions or comments email webmaster@weatherforyou.com

Copyright © 2014, WeatherForYou.com LLC. All rights reserved.